Terminal Aerodrome Forecast
Issued by NWS

Home | Current Version | Previous Version | Text Only | Print | Product List | Glossary On
Versions: 1 2 3 4 5 6 7 8 9 10 11 12 13 14 15 16 17 18 19 20 21
000
FTUS42 KFFC 241733
TAFPDK
TAF
KPDK 241733Z 2418/2518 VRB02KT P6SM FEW250
     FM250600 00000KT P6SM FEW250
     FM251000 00000KT P6SM FEW025 FEW250
     FM251400 24003KT P6SM SCT250=

USA.gov is the U.S. government's official web portal to all federal, state and local government web resources and services.